Photometre #746[NE_1.6] Beijing-CAMS AOT

File : 20190928_746.hum

28/09/2019,00:12:38,TEMP=22.1,BA=5.36,STAT.A=6.0,ExtBa=13.88
28/09/2019,00:14:43,TEMP=22.4,BA=5.36,STAT.A=6.0,ExtBa=13.68
28/09/2019,00:18:21,TEMP=22.5,BA=5.36,STAT.D=6.0,ExtBa=13.57
28/09/2019,00:21:21,TEMP=22.7,BA=5.52,STAT.D=6.0,ExtBa=13.51
28/09/2019,00:24:21,TEMP=22.9,BA=5.52,STAT.D=6.0,ExtBa=13.59
28/09/2019,00:26:21,TEMP=23.2,BA=5.52,STAT.A=6.0,ExtBa=13.75
28/09/2019,00:30:21,TEMP=23.3,BA=5.60,STAT.D=6.0,ExtBa=13.50
28/09/2019,00:33:21,TEMP=23.6,BA=5.60,STAT.D=6.0,ExtBa=13.43
28/09/2019,00:36:21,TEMP=23.9,BA=5.60,STAT.D=6.0,ExtBa=13.57
28/09/2019,00:38:34,TEMP=24.2,BA=5.60,STAT.A=6.0,ExtBa=13.60
28/09/2019,00:42:22,TEMP=24.3,BA=5.44,STAT.D=6.0,ExtBa=13.49
28/09/2019,00:45:21,TEMP=24.6,BA=5.44,STAT.D=6.0,ExtBa=13.59
28/09/2019,00:48:22,TEMP=24.8,BA=5.44,STAT.D=6.0,ExtBa=13.53
28/09/2019,00:51:22,TEMP=25.0,BA=5.52,STAT.D=6.0,ExtBa=13.57
28/09/2019,00:54:22,TEMP=25.1,BA=5.52,STAT.D=6.0,ExtBa=13.51
28/09/2019,00:56:24,TEMP=25.5,BA=5.52,STAT.B=6.0,ExtBa=13.67
28/09/2019,01:06:52,TEMP=25.8,BA=5.36,STAT.F,ExtBa=14.02
28/09/2019,01:23:18,TEMP=26.8,BA=5.36,STAT.D=6.0,ExtBa=13.99
28/09/2019,01:27:22,TEMP=27.0,BA=5.36,STAT.D=6.0,ExtBa=13.70
28/09/2019,01:30:22,TEMP=27.3,BA=5.60,STAT.D=6.0,ExtBa=13.59
28/09/2019,01:33:22,TEMP=27.5,BA=5.60,STAT.D=6.5,ExtBa=13.49
28/09/2019,01:36:02,TEMP=27.7,BA=5.60,STAT.D=6.0,ExtBa=13.55
28/09/2019,01:39:22,TEMP=27.8,BA=5.60,STAT.D=6.5,ExtBa=13.44
28/09/2019,01:42:22,TEMP=28.0,BA=5.44,STAT.D=6.5,ExtBa=13.39
28/09/2019,01:45:22,TEMP=28.2,BA=5.44,STAT.D=6.5,ExtBa=13.40
28/09/2019,01:48:22,TEMP=28.4,BA=5.44,STAT.D=6.5,ExtBa=13.36
28/09/2019,01:51:02,TEMP=28.6,BA=5.48,STAT.D=6.5,ExtBa=13.47
28/09/2019,01:54:22,TEMP=28.7,BA=5.48,STAT.D=6.5,ExtBa=13.39
28/09/2019,01:57:22,TEMP=28.9,BA=5.48,STAT.D=6.5,ExtBa=13.40
28/09/2019,02:00:22,TEMP=29.1,BA=5.60,STAT.D=6.5,ExtBa=13.40
28/09/2019,02:03:22,TEMP=29.2,BA=5.60,STAT.D=6.5,ExtBa=13.41
28/09/2019,02:06:04,TEMP=29.4,BA=5.60,STAT.F,ExtBa=13.48
28/09/2019,02:21:59,TEMP=29.0,BA=5.36,STAT.D=6.5,ExtBa=13.88
28/09/2019,02:24:22,TEMP=29.0,BA=5.36,STAT.D=6.5,ExtBa=13.80
28/09/2019,02:27:22,TEMP=29.0,BA=5.36,STAT.D=6.5,ExtBa=13.65
28/09/2019,02:30:22,TEMP=29.1,BA=5.60,STAT.D=6.5,ExtBa=13.58
28/09/2019,02:33:22,TEMP=29.4,BA=5.60,STAT.D=6.5,ExtBa=13.56
28/09/2019,02:36:02,TEMP=29.6,BA=5.60,STAT.D=6.5,ExtBa=13.61
28/09/2019,02:39:22,TEMP=29.6,BA=5.60,STAT.D=6.5,ExtBa=13.53
28/09/2019,02:42:22,TEMP=29.6,BA=5.40,STAT.D=6.5,ExtBa=13.61
28/09/2019,02:45:22,TEMP=29.5,BA=5.40,STAT.D=6.5,ExtBa=13.62
28/09/2019,02:48:22,TEMP=29.6,BA=5.40,STAT.D=6.5,ExtBa=13.50
28/09/2019,02:51:02,TEMP=29.8,BA=5.40,STAT.D=6.5,ExtBa=13.62
28/09/2019,02:54:22,TEMP=29.9,BA=5.40,STAT.D=6.5,ExtBa=13.53
28/09/2019,02:57:22,TEMP=30.3,BA=5.40,STAT.D=6.5,ExtBa=13.59
28/09/2019,03:00:22,TEMP=30.5,BA=5.60,STAT.D=6.5,ExtBa=13.56
28/09/2019,03:03:22,TEMP=30.8,BA=5.60,STAT.D=6.5,ExtBa=13.54
28/09/2019,03:06:04,TEMP=31.1,BA=5.60,STAT.F,ExtBa=13.60
28/09/2019,03:23:06,TEMP=31.4,BA=5.36,STAT.D=6.5,ExtBa=13.78
28/09/2019,03:27:22,TEMP=31.6,BA=5.36,STAT.D=6.5,ExtBa=13.47
28/09/2019,03:30:22,TEMP=31.9,BA=5.56,STAT.D=6.5,ExtBa=13.67
28/09/2019,03:33:22,TEMP=32.1,BA=5.56,STAT.D=6.5,ExtBa=13.69
28/09/2019,03:36:02,TEMP=32.3,BA=5.56,STAT.D=6.5,ExtBa=13.57
28/09/2019,03:39:22,TEMP=32.4,BA=5.56,STAT.D=6.5,ExtBa=13.50
28/09/2019,03:42:23,TEMP=32.4,BA=5.44,STAT.D=6.5,ExtBa=13.48
28/09/2019,03:45:23,TEMP=32.2,BA=5.44,STAT.D=6.5,ExtBa=13.57
28/09/2019,03:48:22,TEMP=32.0,BA=5.44,STAT.D=6.5,ExtBa=13.50
28/09/2019,03:51:02,TEMP=32.1,BA=5.36,STAT.D=6.5,ExtBa=13.60
28/09/2019,03:54:22,TEMP=32.0,BA=5.36,STAT.D=6.5,ExtBa=13.53
28/09/2019,03:57:22,TEMP=32.1,BA=5.36,STAT.D=6.5,ExtBa=13.50
28/09/2019,04:00:23,TEMP=32.2,BA=5.60,STAT.D=6.5,ExtBa=13.45
28/09/2019,04:03:23,TEMP=32.2,BA=5.60,STAT.D=6.5,ExtBa=13.46
28/09/2019,04:07:17,TEMP=32.2,BA=5.60,STAT.F,ExtBa=13.59
28/09/2019,04:25:19,TEMP=32.2,BA=5.32,STAT.D=6.5,ExtBa=13.56
28/09/2019,04:30:22,TEMP=32.4,BA=5.56,STAT.D=6.5,ExtBa=13.64
28/09/2019,04:33:22,TEMP=32.6,BA=5.56,STAT.D=6.5,ExtBa=13.75
28/09/2019,04:36:03,TEMP=32.8,BA=5.56,STAT.D=6.5,ExtBa=13.70
28/09/2019,04:39:22,TEMP=32.7,BA=5.56,STAT.D=6.5,ExtBa=13.66
28/09/2019,04:42:22,TEMP=32.8,BA=5.36,STAT.D=6.5,ExtBa=13.69
28/09/2019,04:45:22,TEMP=32.9,BA=5.36,STAT.D=6.5,ExtBa=13.73
28/09/2019,04:48:22,TEMP=32.8,BA=5.36,STAT.D=6.5,ExtBa=13.70
28/09/2019,04:51:02,TEMP=32.9,BA=5.36,STAT.D=6.5,ExtBa=13.67
28/09/2019,04:54:22,TEMP=33.0,BA=5.36,STAT.D=6.5,ExtBa=13.58
28/09/2019,04:57:22,TEMP=32.9,BA=5.36,STAT.D=6.5,ExtBa=13.55
28/09/2019,05:00:23,TEMP=32.8,BA=5.56,STAT.D=6.5,ExtBa=13.58
28/09/2019,05:03:22,TEMP=32.7,BA=5.56,STAT.D=6.5,ExtBa=13.59
28/09/2019,05:06:04,TEMP=32.6,BA=5.56,STAT.F,ExtBa=13.60
28/09/2019,05:22:20,TEMP=32.6,BA=5.32,STAT.D=6.5,ExtBa=13.25
28/09/2019,05:24:22,TEMP=32.7,BA=5.32,STAT.D=6.5,ExtBa=13.72
28/09/2019,05:27:22,TEMP=32.5,BA=5.32,STAT.D=6.5,ExtBa=13.78
28/09/2019,05:30:22,TEMP=32.6,BA=5.52,STAT.D=6.5,ExtBa=13.60
28/09/2019,05:33:22,TEMP=32.7,BA=5.52,STAT.D=6.5,ExtBa=13.74
28/09/2019,05:36:02,TEMP=32.7,BA=5.52,STAT.D=6.5,ExtBa=13.64
28/09/2019,05:39:22,TEMP=32.7,BA=5.52,STAT.D=6.5,ExtBa=13.67
28/09/2019,05:42:22,TEMP=32.8,BA=5.40,STAT.D=6.5,ExtBa=13.61
28/09/2019,05:45:22,TEMP=32.9,BA=5.40,STAT.D=6.5,ExtBa=13.53
28/09/2019,05:48:22,TEMP=33.0,BA=5.40,STAT.D=6.5,ExtBa=13.54
28/09/2019,05:51:02,TEMP=33.0,BA=5.36,STAT.D=6.5,ExtBa=13.55
28/09/2019,05:54:22,TEMP=33.0,BA=5.36,STAT.D=6.5,ExtBa=13.62
28/09/2019,05:57:22,TEMP=32.9,BA=5.36,STAT.D=6.5,ExtBa=13.59
28/09/2019,06:00:22,TEMP=32.8,BA=5.56,STAT.D=6.5,ExtBa=13.61
28/09/2019,06:03:22,TEMP=32.6,BA=5.56,STAT.D=6.5,ExtBa=13.56
28/09/2019,06:06:04,TEMP=32.5,BA=5.56,STAT.F,ExtBa=13.61
28/09/2019,06:21:33,TEMP=32.6,BA=5.32,STAT.D=6.5,ExtBa=13.90
28/09/2019,06:24:22,TEMP=32.8,BA=5.32,STAT.D=6.5,ExtBa=13.78
28/09/2019,06:27:22,TEMP=32.9,BA=5.32,STAT.D=6.5,ExtBa=13.72
28/09/2019,06:30:22,TEMP=32.9,BA=5.52,STAT.D=6.5,ExtBa=13.60
28/09/2019,06:33:22,TEMP=32.9,BA=5.52,STAT.D=6.5,ExtBa=13.59
28/09/2019,06:36:02,TEMP=33.0,BA=5.52,STAT.D=6.5,ExtBa=13.61
28/09/2019,06:39:22,TEMP=32.9,BA=5.52,STAT.D=6.5,ExtBa=13.53
28/09/2019,06:42:22,TEMP=32.9,BA=5.36,STAT.D=6.5,ExtBa=13.60
28/09/2019,06:45:22,TEMP=32.8,BA=5.36,STAT.D=6.5,ExtBa=13.61
28/09/2019,06:48:22,TEMP=32.7,BA=5.36,STAT.D=6.5,ExtBa=13.60
28/09/2019,06:51:02,TEMP=32.8,BA=5.36,STAT.D=6.5,ExtBa=13.61
28/09/2019,06:54:22,TEMP=32.6,BA=5.36,STAT.D=6.5,ExtBa=13.57
28/09/2019,06:57:22,TEMP=32.6,BA=5.36,STAT.D=6.5,ExtBa=13.50
28/09/2019,07:00:22,TEMP=32.7,BA=5.52,STAT.D=6.5,ExtBa=13.57
28/09/2019,07:03:22,TEMP=32.8,BA=5.52,STAT.D=6.5,ExtBa=13.56
28/09/2019,07:06:03,TEMP=33.0,BA=5.52,STAT.F,ExtBa=13.59
28/09/2019,07:22:20,TEMP=32.3,BA=5.32,STAT.B=6.5,ExtBa=10.62
28/09/2019,07:33:22,TEMP=31.8,BA=5.32,STAT.D=6.5,ExtBa=10.63
28/09/2019,07:35:22,TEMP=32.0,BA=5.32,STAT.A=6.5,ExtBa=10.60
28/09/2019,07:39:21,TEMP=31.8,BA=5.32,STAT.D=6.5,ExtBa=10.63
28/09/2019,07:42:21,TEMP=31.8,BA=5.36,STAT.D=6.5,ExtBa=10.61
28/09/2019,07:45:21,TEMP=31.7,BA=5.36,STAT.D=6.5,ExtBa=10.61
28/09/2019,07:47:37,TEMP=31.8,BA=5.36,STAT.A=6.5,ExtBa=10.60
28/09/2019,07:51:21,TEMP=31.6,BA=5.44,STAT.D=6.5,ExtBa=10.61
28/09/2019,07:54:21,TEMP=31.6,BA=5.44,STAT.D=6.5,ExtBa=10.60
28/09/2019,07:57:21,TEMP=31.5,BA=5.44,STAT.D=6.5,ExtBa=10.61
28/09/2019,07:59:17,TEMP=31.7,BA=5.44,STAT.A=6.5,ExtBa=10.60
28/09/2019,08:03:21,TEMP=31.3,BA=5.32,STAT.D=6.5,ExtBa=10.62
28/09/2019,08:06:21,TEMP=31.3,BA=5.32,STAT.D=6.5,ExtBa=10.62
28/09/2019,08:08:36,TEMP=31.3,BA=5.32,STAT.A=6.5,ExtBa=10.59
28/09/2019,08:12:21,TEMP=31.0,BA=5.32,STAT.D=6.5,ExtBa=10.61
28/09/2019,08:15:21,TEMP=30.9,BA=5.32,STAT.D=6.5,ExtBa=10.60
28/09/2019,08:17:24,TEMP=31.0,BA=5.32,STAT.C=6.5,ExtBa=10.58
28/09/2019,08:33:18,TEMP=30.2,BA=5.32,STAT.A=6.5,ExtBa=10.59
28/09/2019,08:35:23,TEMP=30.3,BA=5.32,STAT.A=6.5,ExtBa=10.60
28/09/2019,08:37:27,TEMP=30.3,BA=5.32,STAT.A=6.5,ExtBa=10.62
28/09/2019,08:39:45,TEMP=30.2,BA=5.32,STAT.A=6.5,ExtBa=10.63
28/09/2019,08:42:21,TEMP=30.1,BA=5.32,STAT.D=6.5,ExtBa=10.61
28/09/2019,08:44:21,TEMP=30.1,BA=5.32,STAT.B=6.5,ExtBa=10.60
28/09/2019,08:54:49,TEMP=29.4,BA=5.28,STAT.A=6.5,ExtBa=10.58
28/09/2019,08:57:21,TEMP=29.4,BA=5.28,STAT.D=6.5,ExtBa=10.60
28/09/2019,08:59:43,TEMP=29.3,BA=5.28,STAT.A=6.5,ExtBa=10.61
28/09/2019,09:03:21,TEMP=29.1,BA=5.28,STAT.D=6.5,ExtBa=10.62
28/09/2019,09:05:22,TEMP=29.2,BA=5.28,STAT.A=6.5,ExtBa=10.60
28/09/2019,09:10:03,TEMP=28.7,BA=5.36,STAT.A=6.5,ExtBa=10.62
28/09/2019,09:14:00,TEMP=28.5,BA=5.36,STAT.A=6.5,ExtBa=10.62
28/09/2019,09:17:22,TEMP=28.4,BA=5.36,STAT.A=6.5,ExtBa=10.62
28/09/2019,22:55:43,TEMP=19.5,BA=5.60,STAT.A=6.0,ExtBa=12.95
28/09/2019,22:59:05,TEMP=19.8,BA=5.60,STAT.A=5.5,ExtBa=12.85
28/09/2019,23:03:02,TEMP=20.0,BA=5.56,STAT.A=6.0,ExtBa=12.85
28/09/2019,23:06:21,TEMP=20.2,BA=5.56,STAT.D=6.0,ExtBa=12.84
28/09/2019,23:08:32,TEMP=20.5,BA=5.56,STAT.A=5.5,ExtBa=12.81
28/09/2019,23:12:21,TEMP=20.5,BA=5.56,STAT.D=6.0,ExtBa=12.88
28/09/2019,23:14:15,TEMP=20.8,BA=5.56,STAT.A=6.0,ExtBa=12.87
28/09/2019,23:18:21,TEMP=20.8,BA=5.56,STAT.D=6.0,ExtBa=13.22
28/09/2019,23:20:24,TEMP=21.1,BA=5.56,STAT.A=6.0,ExtBa=13.50
28/09/2019,23:24:21,TEMP=21.1,BA=5.56,STAT.D=6.0,ExtBa=13.34
28/09/2019,23:27:21,TEMP=21.4,BA=5.56,STAT.D=6.0,ExtBa=13.39
28/09/2019,23:29:40,TEMP=21.6,BA=5.56,STAT.B=6.0,ExtBa=13.67
28/09/2019,23:40:56,TEMP=22.0,BA=5.36,STAT.A=6.0,ExtBa=13.60
28/09/2019,23:43:04,TEMP=22.3,BA=5.36,STAT.A=6.0,ExtBa=13.91
28/09/2019,23:45:11,TEMP=22.4,BA=5.36,STAT.A=6.0,ExtBa=13.94
28/09/2019,23:48:21,TEMP=22.5,BA=5.36,STAT.D=6.0,ExtBa=13.87
28/09/2019,23:50:19,TEMP=22.8,BA=5.44,STAT.A=6.0,ExtBa=13.93
28/09/2019,23:54:21,TEMP=22.8,BA=5.44,STAT.D=6.0,ExtBa=13.73
28/09/2019,23:56:34,TEMP=23.1,BA=5.44,STAT.C=6.0,ExtBa=13.79